| time (UTC) | temp C | wind direction | speed KPH | gust KPH | rain 1hr cm | rain 24hr cm | rain mn cm | humidity % | barometer mb |
| 20260502163441 | 16 | 224 | 0.0 | 1.6 | 0.00 | 0.10 | 0.03 | 48 | 1024.4 |
| 20260502162932 | 16 | 206 | 0.0 | 1.6 | 0.00 | 0.13 | 0.03 | 49 | 1024.4 |
| 20260502162408 | 15 | 223 | 0.0 | 1.6 | 0.00 | 0.13 | 0.03 | 51 | 1024.4 |
| 20260502161859 | 15 | 202 | 0.0 | 4.8 | 0.00 | 0.13 | 0.03 | 50 | 1024.4 |
| 20260502161350 | 15 | 219 | 3.2 | 4.8 | 0.00 | 0.15 | 0.03 | 51 | 1024.1 |
| 20260502160840 | 15 | 186 | 0.0 | 4.8 | 0.00 | 0.15 | 0.03 | 50 | 1024.1 |
| 20260502160604 | 15 | 263 | 0.0 | 4.8 | 0.00 | 0.18 | 0.03 | 51 | 1024.1 |
| 20260502151709 | 13 | 188 | 0.0 | 1.6 | 0.00 | 0.30 | 0.03 | 57 | 1024.4 |
| 20260502151208 | 13 | 182 | 0.0 | 1.6 | 0.00 | 0.30 | 0.03 | 58 | 1024.1 |
| 20260502150705 | 13 | 243 | 0.0 | 0.0 | 0.00 | 0.30 | 0.03 | 60 | 1024.1 |
| 20260502150156 | 13 | 244 | 0.0 | 3.2 | 0.00 | 0.30 | 0.03 | 61 | 1024.4 |
| 20260502130327 | 6 | 25 | 0.0 | 0.0 | 0.00 | 0.30 | 0.03 | 89 | 1023.4 |
| 20260502123757 | 3 | 26 | 0.0 | 0.0 | 0.00 | 0.30 | 0.03 | 92 | 1023.8 |
| 20260502123245 | 3 | 26 | 0.0 | 0.0 | 0.00 | 0.30 | 0.03 | 92 | 1023.4 |
| 20260502122735 | 3 | 26 | 0.0 | 0.0 | 0.00 | 0.30 | 0.03 | 92 | 1023.4 |
| 20260502122447 | 2 | 26 | 0.0 | 0.0 | 0.00 | 0.30 | 0.03 | 92 | 1023.4 |
| 20260502121707 | 2 | 26 | 0.0 | 0.0 | 0.00 | 0.30 | 0.03 | 92 | 1023.4 |
| 20260502121206 | 2 | 26 | 0.0 | 0.0 | 0.03 | 0.30 | 0.03 | 92 | 1023.1 |
| 20260502120707 | 2 | 26 | 0.0 | 0.0 | 0.03 | 0.30 | 0.03 | 92 | 1023.1 |
| 20260502120207 | 2 | 26 | 0.0 | 0.0 | 0.03 | 0.30 | 0.03 | 92 | 1022.8 |
| 20260502115706 | 2 | 26 | 0.0 | 0.0 | 0.03 | 0.30 | 0.03 | 92 | 1022.8 |
| 20260502115207 | 2 | 26 | 0.0 | 0.0 | 0.03 | 0.30 | 0.03 | 92 | 1022.8 |
| 20260502114659 | 2 | 26 | 0.0 | 0.0 | 0.03 | 0.33 | 0.03 | 92 | 1022.8 |
| 20260502114147 | 3 | 26 | 0.0 | 0.0 | 0.03 | 0.33 | 0.03 | 92 | 1023.1 |
| 20260502113636 | 3 | 26 | 0.0 | 0.0 | 0.03 | 0.33 | 0.03 | 92 | 1023.1 |
| 20260502113354 | 3 | 26 | 0.0 | 0.0 | 0.03 | 0.36 | 0.03 | 92 | 1022.8 |
| 20260502112607 | 3 | 26 | 0.0 | 0.0 | 0.03 | 0.36 | 0.03 | 92 | 1022.8 |
| 20260502112322 | 3 | 26 | 0.0 | 0.0 | 0.03 | 0.36 | 0.03 | 92 | 1022.8 |
| 20260502111813 | 3 | 26 | 0.0 | 0.0 | 0.00 | 0.33 | 0.00 | 92 | 1023.1 |
| 20260502111043 | 3 | 26 | 0.0 | 0.0 | 0.00 | 0.36 | 0.00 | 92 | 1023.1 |
| 20260502110535 | 3 | 26 | 0.0 | 0.0 | 0.00 | 0.36 | 0.00 | 92 | 1023.1 |
| 20260502110009 | 3 | 26 | 0.0 | 0.0 | 0.00 | 0.36 | 0.00 | 92 | 1022.8 |
| 20260502105459 | 3 | 26 | 0.0 | 0.0 | 0.00 | 0.36 | 0.00 | 92 | 1023.1 |
| 20260502104949 | 3 | 26 | 0.0 | 0.0 | 0.00 | 0.36 | 0.00 | 92 | 1023.1 |
| 20260502104658 | 3 | 26 | 0.0 | 0.0 | 0.00 | 0.36 | 0.00 | 92 | 1023.1 |
| 20260502103926 | 3 | 26 | 0.0 | 0.0 | 0.00 | 0.36 | 0.00 | 92 | 1023.1 |
| 20260502103416 | 3 | 26 | 0.0 | 0.0 | 0.00 | 0.36 | 0.00 | 92 | 1023.1 |
| 20260502102906 | 3 | 26 | 0.0 | 0.0 | 0.00 | 0.36 | 0.00 | 92 | 1023.1 |
| 20260502102407 | 3 | 26 | 0.0 | 0.0 | 0.00 | 0.36 | 0.00 | 92 | 1023.4 |
| 20260502102118 | 3 | 26 | 0.0 | 0.0 | 0.00 | 0.36 | 0.00 | 92 | 1023.1 |
| 20260502101602 | 3 | 26 | 0.0 | 0.0 | 0.00 | 0.36 | 0.00 | 91 | 1023.1 |
| 20260502101110 | 3 | 26 | 0.0 | 0.0 | 0.00 | 0.36 | 0.00 | 91 | 1023.4 |
| 20260502100340 | 3 | 26 | 0.0 | 0.0 | 0.00 | 0.36 | 0.00 | 91 | 1023.4 |
| 20260502091208 | 4 | 26 | 0.0 | 0.0 | 0.00 | 0.36 | 0.00 | 91 | 1023.1 |
| 20260502090706 | 4 | 26 | 0.0 | 0.0 | 0.00 | 0.36 | 0.00 | 91 | 1022.8 |
| 20260502090204 | 4 | 26 | 0.0 | 0.0 | 0.00 | 0.36 | 0.00 | 91 | 1022.8 |
| 20260502070902 | 4 | 26 | 0.0 | 0.0 | 0.00 | 0.36 | 0.00 | 89 | 1022.8 |
| 20260502070401 | 4 | 26 | 0.0 | 0.0 | 0.00 | 0.36 | 0.00 | 89 | 1023.1 |
| 20260502065853 | 4 | 26 | 0.0 | 0.0 | 0.00 | 0.36 | 0.00 | 89 | 1022.8 |
| 20260502065340 | 4 | 26 | 0.0 | 3.2 | 0.00 | 0.36 | 0.00 | 89 | 1022.8 |
| 20260502064828 | 4 | 26 | 1.6 | 3.2 | 0.00 | 0.36 | 0.00 | 89 | 1023.1 |
| 20260502064545 | 4 | 26 | 0.0 | 0.0 | 0.00 | 0.36 | 0.00 | 89 | 1023.4 |
| 20260502063823 | 4 | 26 | 0.0 | 0.0 | 0.00 | 0.36 | 0.00 | 89 | 1023.1 |
| 20260502063309 | 4 | 26 | 0.0 | 0.0 | 0.00 | 0.36 | 0.00 | 89 | 1022.8 |
| 20260502062759 | 4 | 26 | 0.0 | 0.0 | 0.00 | 0.36 | 0.00 | 89 | 1022.8 |
| 20260502062246 | 4 | 26 | 0.0 | 0.0 | 0.00 | 0.36 | 0.00 | 89 | 1022.8 |
| 20260502061734 | 4 | 26 | 0.0 | 0.0 | 0.00 | 0.36 | 0.00 | 89 | 1023.1 |
| 20260502061445 | 4 | 26 | 0.0 | 0.0 | 0.00 | 0.36 | 0.00 | 89 | 1023.1 |
| 20260502060708 | 4 | 26 | 0.0 | 0.0 | 0.00 | 0.36 | 0.00 | 89 | 1023.4 |
| 20260502060158 | 4 | 26 | 0.0 | 0.0 | 0.00 | 0.36 | 0.00 | 89 | 1022.8 |
| 20260502055644 | 4 | 26 | 0.0 | 0.0 | 0.00 | 0.36 | 0.36 | 89 | 1023.1 |
| 20260502055133 | 4 | 26 | 0.0 | 0.0 | 0.00 | 0.36 | 0.36 | 88 | 1023.1 |
| 20260502055101 | 4 | 26 | 0.0 | 0.0 | 0.00 | 0.36 | 0.36 | 88 | 1023.1 |
| 20260502054107 | 4 | 26 | 0.0 | 0.0 | 0.00 | 0.36 | 0.36 | 88 | 1023.1 |
| 20260502053832 | 4 | 26 | 0.0 | 0.0 | 0.00 | 0.36 | 0.36 | 88 | 1022.8 |
| 20260502053325 | 5 | 26 | 0.0 | 0.0 | 0.00 | 0.36 | 0.36 | 88 | 1022.8 |
| 20260502052545 | 5 | 26 | 0.0 | 0.0 | 0.00 | 0.36 | 0.36 | 87 | 1022.8 |
| 20260502052035 | 5 | 26 | 0.0 | 0.0 | 0.00 | 0.36 | 0.36 | 87 | 1022.8 |
| 20260502051521 | 5 | 26 | 0.0 | 0.0 | 0.00 | 0.36 | 0.36 | 87 | 1022.8 |
| 20260502051008 | 5 | 26 | 0.0 | 0.0 | 0.00 | 0.36 | 0.36 | 87 | 1022.8 |
| 20260502050507 | 5 | 26 | 0.0 | 0.0 | 0.00 | 0.36 | 0.36 | 87 | 1022.8 |
| 20260502050004 | 5 | 26 | 0.0 | 0.0 | 0.00 | 0.36 | 0.36 | 87 | 1023.1 |
| 20260502045450 | 5 | 26 | 0.0 | 0.0 | 0.00 | 0.36 | 0.36 | 87 | 1022.8 |
| 20260502044937 | 5 | 26 | 0.0 | 0.0 | 0.00 | 0.36 | 0.36 | 87 | 1022.8 |
| 20260502044426 | 5 | 26 | 0.0 | 0.0 | 0.00 | 0.36 | 0.36 | 87 | 1023.1 |
| 20260502043912 | 5 | 26 | 0.0 | 0.0 | 0.00 | 0.36 | 0.36 | 87 | 1023.1 |
| 20260502043400 | 5 | 26 | 0.0 | 0.0 | 0.00 | 0.36 | 0.36 | 88 | 1022.8 |
| 20260502042847 | 5 | 26 | 0.0 | 0.0 | 0.00 | 0.36 | 0.36 | 88 | 1022.8 |
| 20260502042336 | 5 | 26 | 0.0 | 0.0 | 0.00 | 0.36 | 0.36 | 88 | 1023.1 |
| 20260502042042 | 5 | 26 | 0.0 | 0.0 | 0.00 | 0.36 | 0.36 | 88 | 1023.1 |
| 20260502041535 | 5 | 26 | 0.0 | 0.0 | 0.00 | 0.36 | 0.36 | 88 | 1022.8 |
| 20260502040807 | 5 | 26 | 0.0 | 0.0 | 0.00 | 0.36 | 0.36 | 88 | 1023.4 |
| 20260502040300 | 5 | 26 | 0.0 | 0.0 | 0.00 | 0.36 | 0.36 | 87 | 1023.1 |
| 20260502040014 | 5 | 26 | 0.0 | 0.0 | 0.00 | 0.36 | 0.36 | 87 | 1023.1 |
| 20260502035233 | 5 | 26 | 0.0 | 0.0 | 0.00 | 0.36 | 0.36 | 87 | 1022.8 |
| 20260502034722 | 5 | 26 | 0.0 | 0.0 | 0.00 | 0.36 | 0.36 | 87 | 1023.1 |
| 20260502034208 | 5 | 26 | 0.0 | 0.0 | 0.00 | 0.36 | 0.36 | 86 | 1022.8 |
| 20260502033708 | 5 | 26 | 0.0 | 0.0 | 0.00 | 0.36 | 0.36 | 86 | 1022.8 |
| 20260502033208 | 6 | 26 | 0.0 | 0.0 | 0.00 | 0.36 | 0.36 | 85 | 1022.8 |
| 20260502032924 | 6 | 26 | 0.0 | 0.0 | 0.00 | 0.36 | 0.36 | 85 | 1023.1 |
| 20260502032151 | 6 | 26 | 0.0 | 0.0 | 0.00 | 0.36 | 0.36 | 85 | 1022.8 |
| 20260502031640 | 6 | 26 | 0.0 | 0.0 | 0.00 | 0.36 | 0.36 | 84 | 1022.8 |
| 20260502031130 | 6 | 26 | 0.0 | 0.0 | 0.00 | 0.36 | 0.36 | 84 | 1022.8 |
| 20260502030617 | 6 | 26 | 0.0 | 0.0 | 0.00 | 0.36 | 0.36 | 83 | 1022.8 |
| 20260502030105 | 7 | 26 | 0.0 | 0.0 | 0.00 | 0.36 | 0.36 | 83 | 1022.8 |
| 20260502025551 | 7 | 26 | 0.0 | 0.0 | 0.00 | 0.36 | 0.36 | 82 | 1022.8 |
| 20260502025034 | 7 | 26 | 0.0 | 0.0 | 0.00 | 0.36 | 0.36 | 82 | 1022.4 |
| 20260502024530 | 7 | 26 | 0.0 | 0.0 | 0.00 | 0.36 | 0.36 | 81 | 1022.1 |
| 20260502024008 | 7 | 26 | 0.0 | 0.0 | 0.00 | 0.36 | 0.36 | 81 | 1022.4 |
| 20260502023507 | 7 | 26 | 0.0 | 0.0 | 0.00 | 0.36 | 0.36 | 81 | 1022.1 |
| 20260502023000 | 7 | 26 | 0.0 | 0.0 | 0.00 | 0.36 | 0.36 | 81 | 1022.4 |
| 20260502022448 | 7 | 26 | 0.0 | 0.0 | 0.00 | 0.36 | 0.36 | 81 | 1022.1 |
| 20260502021933 | 7 | 26 | 0.0 | 0.0 | 0.00 | 0.36 | 0.36 | 80 | 1021.7 |
| 20260502021421 | 7 | 26 | 0.0 | 0.0 | 0.00 | 0.36 | 0.36 | 80 | 1021.7 |
| 20260502020908 | 7 | 26 | 0.0 | 0.0 | 0.00 | 0.36 | 0.36 | 79 | 1021.7 |
| 20260502020357 | 8 | 26 | 0.0 | 0.0 | 0.00 | 0.36 | 0.36 | 79 | 1021.7 |
| 20260502020108 | 8 | 26 | 0.0 | 0.0 | 0.00 | 0.36 | 0.36 | 78 | 1021.7 |
| 20260502015332 | 8 | 26 | 0.0 | 0.0 | 0.00 | 0.36 | 0.36 | 77 | 1021.7 |
| 20260502015035 | 8 | 26 | 0.0 | 0.0 | 0.00 | 0.36 | 0.36 | 77 | 1021.1 |
| 20260502014307 | 8 | 26 | 0.0 | 0.0 | 0.00 | 0.36 | 0.36 | 76 | 1021.4 |
| 20260502013754 | 8 | 26 | 0.0 | 0.0 | 0.00 | 0.36 | 0.36 | 75 | 1021.4 |
| 20260502013241 | 9 | 26 | 0.0 | 0.0 | 0.00 | 0.36 | 0.36 | 73 | 1021.4 |
| 20260502012730 | 9 | 26 | 0.0 | 0.0 | 0.00 | 0.36 | 0.36 | 72 | 1021.4 |
| 20260502012218 | 9 | 26 | 0.0 | 0.0 | 0.00 | 0.36 | 0.36 | 70 | 1021.4 |
| 20260502011926 | 9 | 26 | 0.0 | 0.0 | 0.00 | 0.36 | 0.36 | 68 | 1021.1 |
| 20260502011153 | 10 | 26 | 0.0 | 0.0 | 0.00 | 0.36 | 0.36 | 67 | 1021.4 |
| 20260502010639 | 10 | 28 | 0.0 | 0.0 | 0.00 | 0.36 | 0.36 | 67 | 1021.1 |
| 20260502010402 | 10 | 39 | 0.0 | 0.0 | 0.00 | 0.36 | 0.36 | 67 | 1021.1 |
| 20260502005634 | 10 | 39 | 0.0 | 0.0 | 0.00 | 0.36 | 0.36 | 67 | 1021.1 |
| 20260502005600 | 10 | 33 | 0.0 | 0.0 | 0.00 | 0.36 | 0.36 | 67 | 1021.1 |
| 20260502004558 | 10 | 65 | 0.0 | 0.0 | 0.00 | 0.36 | 0.36 | 67 | 1021.1 |
| 20260502004046 | 10 | 62 | 0.0 | 0.0 | 0.00 | 0.36 | 0.36 | 66 | 1020.7 |
| 20260502004031 | 10 | 62 | 0.0 | 6.4 | 0.00 | 0.36 | 0.36 | 65 | 1020.7 |
| 20260502003022 | 10 | 84 | 0.0 | 6.4 | 0.00 | 0.36 | 0.36 | 66 | 1020.7 |
| 20260502002728 | 10 | 59 | 0.0 | 3.2 | 0.00 | 0.36 | 0.36 | 66 | 1020.7 |
| 20260502001955 | 10 | 38 | 0.0 | 4.8 | 0.00 | 0.36 | 0.36 | 67 | 1020.7 |
| 20260502001442 | 10 | 62 | 0.0 | 0.0 | 0.00 | 0.36 | 0.36 | 69 | 1020.7 |
| 20260502000929 | 10 | 58 | 0.0 | 1.6 | 0.00 | 0.36 | 0.36 | 69 | 1020.7 |
| 20260502000425 | 10 | 95 | 0.0 | 1.6 | 0.00 | 0.36 | 0.36 | 71 | 1020.4 |
| 20260501235908 | 10 | 27 | 0.0 | 3.2 | 0.00 | 0.36 | 0.36 | 72 | 1020.4 |
| 20260501235406 | 10 | 33 | 0.0 | 4.8 | 0.00 | 0.36 | 0.36 | 71 | 1020.7 |
| 20260501235127 | 10 | 31 | 0.0 | 9.7 | 0.00 | 0.36 | 0.36 | 73 | 1020.7 |
| 20260501234351 | 10 | 30 | 0.0 | 9.7 | 0.00 | 0.36 | 0.36 | 74 | 1021.1 |
| 20260501233839 | 10 | 25 | 0.0 | 0.0 | 0.00 | 0.36 | 0.36 | 74 | 1020.7 |
| 20260501233324 | 10 | 23 | 0.0 | 4.8 | 0.00 | 0.36 | 0.36 | 74 | 1020.7 |
| 20260501233031 | 9 | 23 | 0.0 | 4.8 | 0.00 | 0.36 | 0.36 | 74 | 1020.7 |
| 20260501232753 | 10 | 25 | 0.0 | 9.7 | 0.00 | 0.36 | 0.36 | 76 | 1020.7 |
| 20260501231807 | 9 | 27 | 0.0 | 9.7 | 0.00 | 0.36 | 0.36 | 76 | 1020.7 |
| 20260501231307 | 9 | 27 | 0.0 | 9.7 | 0.00 | 0.36 | 0.36 | 78 | 1020.7 |
| 20260501230807 | 9 | 33 | 0.0 | 9.7 | 0.00 | 0.36 | 0.36 | 78 | 1020.4 |
| 20260501230259 | 9 | 28 | 0.0 | 12.9 | 0.00 | 0.36 | 0.36 | 79 | 1020.7 |
| 20260501230010 | 9 | 7 | 0.0 | 12.9 | 0.00 | 0.36 | 0.36 | 79 | 1020.7 |
| 20260501225455 | 8 | 12 | 4.8 | 11.3 | 0.00 | 0.36 | 0.36 | 80 | 1020.7 |
| 20260501224723 | 8 | 32 | 0.0 | 11.3 | 0.00 | 0.36 | 0.36 | 83 | 1020.4 |
| 20260501224223 | 8 | 1 | 4.8 | 11.3 | 0.00 | 0.36 | 0.36 | 83 | 1020.4 |
| 20260501223720 | 8 | 13 | 0.0 | 12.9 | 0.00 | 0.36 | 0.36 | 85 | 1020.4 |
| 20260501223650 | 8 | 22 | 0.0 | 12.9 | 0.00 | 0.36 | 0.36 | 86 | 1020.4 |
| 20260501222707 | 8 | 20 | 3.2 | 12.9 | 0.03 | 0.36 | 0.36 | 86 | 1020.0 |
| 20260501222158 | 8 | 11 | 0.0 | 14.5 | 0.03 | 0.36 | 0.36 | 86 | 1020.7 |
| 20260501221646 | 8 | 13 | 8.0 | 14.5 | 0.03 | 0.36 | 0.36 | 86 | 1020.4 |
| 20260501221134 | 8 | 345 | 4.8 | 14.5 | 0.05 | 0.36 | 0.36 | 87 | 1020.4 |
| 20260501220607 | 8 | 5 | 1.6 | 14.5 | 0.05 | 0.36 | 0.36 | 87 | 1020.7 |
| 20260501220055 | 8 | 15 | 0.0 | 16.1 | 0.08 | 0.36 | 0.36 | 88 | 1020.7 |
| 20260501215543 | 8 | 10 | 9.7 | 16.1 | 0.08 | 0.36 | 0.36 | 88 | 1020.4 |
| 20260501215032 | 7 | 351 | 9.7 | 16.1 | 0.08 | 0.36 | 0.36 | 89 | 1020.4 |
| 20260501214519 | 7 | 12 | 3.2 | 14.5 | 0.08 | 0.36 | 0.36 | 89 | 1020.4 |
| 20260501214006 | 7 | 5 | 0.0 | 17.7 | 0.08 | 0.36 | 0.36 | 89 | 1020.7 |
| 20260501213507 | 7 | 334 | 6.4 | 17.7 | 0.08 | 0.36 | 0.36 | 89 | 1021.1 |
| 20260501213006 | 7 | 351 | 4.8 | 11.3 | 0.08 | 0.36 | 0.36 | 89 | 1020.7 |
| 20260501212728 | 7 | 357 | 3.2 | 14.5 | 0.05 | 0.33 | 0.33 | 88 | 1021.1 |
| 20260501211953 | 7 | 22 | 4.8 | 16.1 | 0.05 | 0.33 | 0.33 | 88 | 1020.7 |
| 20260501211706 | 7 | 13 | 6.4 | 24.1 | 0.05 | 0.33 | 0.33 | 87 | 1020.7 |
| 20260501210931 | 7 | 358 | 3.2 | 24.1 | 0.03 | 0.30 | 0.30 | 86 | 1020.7 |
| 20260501210417 | 8 | 19 | 3.2 | 16.1 | 0.00 | 0.28 | 0.28 | 86 | 1020.7 |
| 20260501210134 | 8 | 348 | 11.3 | 17.7 | 0.00 | 0.28 | 0.28 | 85 | 1020.7 |
| 20260501205356 | 8 | 10 | 1.6 | 17.7 | 0.00 | 0.28 | 0.28 | 84 | 1020.7 |
| 20260501204843 | 8 | 14 | 0.0 | 17.7 | 0.00 | 0.28 | 0.28 | 84 | 1020.7 |
| 20260501204738 | 8 | 10 | 3.2 | 16.1 | 0.00 | 0.28 | 0.28 | 82 | 1020.7 |
| 20260501204406 | 8 | 348 | 0.0 | 16.1 | 0.00 | 0.28 | 0.28 | 83 | 1020.7 |
| 20260501203531 | 8 | 355 | 4.8 | 12.9 | 0.00 | 0.28 | 0.28 | 82 | 1020.7 |
| 20260501202757 | 8 | 6 | 6.4 | 17.7 | 0.00 | 0.28 | 0.28 | 81 | 1020.7 |
| 20260501202733 | 8 | 9 | 0.0 | 17.7 | 0.00 | 0.28 | 0.28 | 81 | 1020.7 |
| 20260501201735 | 8 | 15 | 0.0 | 17.7 | 0.00 | 0.28 | 0.28 | 80 | 1020.4 |
| 20260501201224 | 8 | 333 | 11.3 | 16.1 | 0.00 | 0.28 | 0.28 | 81 | 1020.7 |
| 20260501200708 | 8 | 9 | 8.0 | 16.1 | 0.00 | 0.28 | 0.28 | 82 | 1020.7 |
| 20260501200206 | 8 | 339 | 9.7 | 14.5 | 0.00 | 0.28 | 0.28 | 82 | 1020.7 |
| 20260501195704 | 8 | 11 | 0.0 | 20.9 | 0.00 | 0.28 | 0.28 | 82 | 1020.7 |
| 20260501195152 | 8 | 359 | 9.7 | 20.9 | 0.00 | 0.28 | 0.28 | 81 | 1020.4 |
| 20260501194639 | 8 | 4 | 4.8 | 14.5 | 0.00 | 0.28 | 0.28 | 80 | 1020.4 |
| 20260501194617 | 9 | 18 | 0.0 | 12.9 | 0.00 | 0.28 | 0.28 | 78 | 1020.4 |
| 20260501193617 | 10 | 8 | 1.6 | 12.9 | 0.00 | 0.28 | 0.28 | 74 | 1020.4 |
| 20260501193552 | 10 | 44 | 0.0 | 4.8 | 0.00 | 0.28 | 0.28 | 66 | 1020.0 |
| 20260501192555 | 10 | 119 | 0.0 | 4.8 | 0.00 | 0.28 | 0.28 | 62 | 1020.0 |
| 20260501192042 | 10 | 32 | 0.0 | 3.2 | 0.00 | 0.28 | 0.28 | 71 | 1020.0 |
| 20260501191752 | 10 | 106 | 0.0 | 6.4 | 0.00 | 0.28 | 0.28 | 63 | 1020.0 |
| 20260501191019 | 10 | 87 | 0.0 | 11.3 | 0.00 | 0.28 | 0.28 | 61 | 1020.0 |
| 20260501190950 | 10 | 63 | 1.6 | 12.9 | 0.00 | 0.28 | 0.28 | 60 | 1020.4 |
| 20260501190004 | 10 | 86 | 0.0 | 12.9 | 0.00 | 0.28 | 0.28 | 62 | 1020.4 |
| 20260501185504 | 10 | 69 | 0.0 | 4.8 | 0.00 | 0.28 | 0.28 | 62 | 1020.0 |
| 20260501185002 | 10 | 78 | 0.0 | 9.7 | 0.00 | 0.28 | 0.28 | 63 | 1020.0 |
| 20260501184723 | 10 | 58 | 0.0 | 9.7 | 0.00 | 0.28 | 0.28 | 63 | 1020.4 |
| 20260501183943 | 10 | 83 | 0.0 | 11.3 | 0.00 | 0.28 | 0.28 | 65 | 1020.4 |
| 20260501183430 | 10 | 44 | 4.8 | 14.5 | 0.00 | 0.28 | 0.28 | 65 | 1020.0 |
| 20260501182919 | 10 | 99 | 0.0 | 17.7 | 0.00 | 0.28 | 0.28 | 64 | 1020.4 |
| 20260501182408 | 10 | 99 | 0.0 | 17.7 | 0.00 | 0.28 | 0.28 | 66 | 1020.4 |
| 20260501181907 | 10 | 134 | 6.4 | 16.1 | 0.00 | 0.28 | 0.28 | 63 | 1020.4 |
| 20260501181404 | 10 | 108 | 6.4 | 16.1 | 0.00 | 0.28 | 0.28 | 68 | 1020.4 |
| 20260501180851 | 10 | 95 | 1.6 | 11.3 | 0.00 | 0.28 | 0.28 | 80 | 1020.4 |
| 20260501180342 | 9 | 70 | 0.0 | 11.3 | 0.00 | 0.28 | 0.28 | 80 | 1020.4 |
| 20260501175831 | 9 | 125 | 1.6 | 9.7 | 0.00 | 0.28 | 0.28 | 81 | 1020.4 |
| 20260501175540 | 9 | 106 | 4.8 | 11.3 | 0.00 | 0.28 | 0.28 | 80 | 1020.4 |
| 20260501174808 | 9 | 74 | 0.0 | 11.3 | 0.00 | 0.28 | 0.28 | 82 | 1020.4 |
| 20260501174308 | 8 | 56 | 0.0 | 12.9 | 0.00 | 0.28 | 0.28 | 82 | 1020.7 |
| 20260501173801 | 8 | 47 | 3.2 | 12.9 | 0.00 | 0.28 | 0.28 | 82 | 1020.7 |
| 20260501173250 | 8 | 36 | 6.4 | 12.9 | 0.00 | 0.28 | 0.28 | 82 | 1020.4 |
| 20260501173001 | 8 | 92 | 1.6 | 11.3 | 0.03 | 0.28 | 0.28 | 84 | 1020.7 |
| 20260501172229 | 8 | 54 | 0.0 | 12.9 | 0.03 | 0.28 | 0.28 | 85 | 1020.7 |
| 20260501171703 | 8 | 61 | 3.2 | 12.9 | 0.03 | 0.28 | 0.28 | 85 | 1020.7 |
| 20260501171150 | 8 | 59 | 0.0 | 12.9 | 0.05 | 0.28 | 0.28 | 85 | 1020.4 |
| 20260501170641 | 8 | 112 | 0.0 | 12.9 | 0.05 | 0.28 | 0.28 | 85 | 1020.4 |
| 20260501170130 | 8 | 126 | 1.6 | 6.4 | 0.08 | 0.28 | 0.28 | 86 | 1020.4 |
| 20260501165619 | 7 | 60 | 0.0 | 16.1 | 0.10 | 0.28 | 0.28 | 86 | 1020.4 |
| 20260501165108 | 8 | 61 | 8.0 | 16.1 | 0.13 | 0.28 | 0.28 | 87 | 1020.7 |
| 20260501164557 | 7 | 114 | 0.0 | 14.5 | 0.13 | 0.28 | 0.28 | 87 | 1020.7 |
| 20260501164304 | 7 | 81 | 0.0 | 14.5 | 0.15 | 0.28 | 0.28 | 87 | 1020.7 |